Location: Boda
(47.1872°N, 9.5454°E)
Time: 17:50:24
(UTC+00:00)

CZ-3B R/B - Pass Details

Date: 14 May 2021
Orbit: 318 x 17354 km, 54.9° (Epoch: 15 June)

Event Time Altitude Azimuth Distance (km) Brightness Sun altitude
Rises 01:06:34 0° 237° (WSW) 13,387 8.3 -19.8°
Reaches altitude 10° 01:21:13 10° 240° (WSW) 9,176 7.5 -18.6°
Maximum altitude 01:42:43 75° 328° (NNW) 1,449 3.9 -16.6°
Drops below altitude 10° 01:47:25 10° 55° (NE) 2,255 6.1 -16.1°
Sets 01:48:47 0° 58° (ENE) 2,843 6.8 -16.0°
